TimeCDT,TemperatureF,Dew PointF,Humidity,Sea Level PressureIn,VisibilityMPH,Wind Direction,Wind SpeedMPH,Gust SpeedMPH,PrecipitationIn,Events,Conditions,WindDirDegrees,DateUTC
12:15 AM,51.3,48.0,89,30.07,10.0,Calm,Calm,-,N/A,,Clear,0,2013-09-14 05:15:00
12:35 AM,50.2,50.2,100,30.07,10.0,Calm,Calm,-,N/A,,Clear,0,2013-09-14 05:35:00
12:55 AM,49.5,49.5,100,30.07,10.0,North,3.5,-,N/A,,Clear,10,2013-09-14 05:55:00
1:15 AM,49.1,49.1,100,30.07,10.0,Calm,Calm,-,N/A,,Clear,0,2013-09-14 06:15:00
1:35 AM,49.1,49.1,100,30.07,10.0,Calm,Calm,-,N/A,,Clear,0,2013-09-14 06:35:00
1:55 AM,49.1,49.1,100,30.07,10.0,Calm,Calm,-,N/A,,Clear,0,2013-09-14 06:55:00
2:15 AM,48.9,48.9,100,30.07,10.0,NNE,3.5,-,N/A,,Clear,20,2013-09-14 07:15:00
2:35 AM,49.8,48.0,94,30.07,10.0,Calm,Calm,-,N/A,,Clear,0,2013-09-14 07:35:00
2:55 AM,50.2,47.3,90,30.07,10.0,NNE,3.5,-,N/A,,Clear,20,2013-09-14 07:55:00
3:15 AM,50.4,46.9,88,30.06,10.0,NNE,3.5,-,N/A,,Clear,20,2013-09-14 08:15:00
3:35 AM,50.2,46.6,87,30.06,10.0,Calm,Calm,-,N/A,,Clear,0,2013-09-14 08:35:00
3:55 AM,49.3,47.5,94,30.07,10.0,Calm,Calm,-,N/A,,Clear,0,2013-09-14 08:55:00
4:15 AM,48.9,48.4,98,30.07,10.0,Calm,Calm,-,N/A,,Clear,0,2013-09-14 09:15:00
4:35 AM,49.3,46.9,92,30.07,10.0,Calm,Calm,-,N/A,,Clear,0,2013-09-14 09:35:00
4:55 AM,49.3,45.3,86,30.07,10.0,Calm,Calm,-,N/A,,Clear,0,2013-09-14 09:55:00
5:15 AM,49.1,45.3,87,30.08,10.0,Calm,Calm,-,N/A,,Clear,0,2013-09-14 10:15:00
5:35 AM,48.6,45.1,88,30.08,10.0,Calm,Calm,-,N/A,,Clear,0,2013-09-14 10:35:00
5:55 AM,47.8,46.2,94,30.08,10.0,Calm,Calm,-,N/A,,Clear,0,2013-09-14 10:55:00
6:15 AM,47.5,47.5,100,30.09,10.0,Calm,Calm,-,N/A,,Clear,0,2013-09-14 11:15:00
6:35 AM,47.5,47.5,100,30.09,10.0,Calm,Calm,-,N/A,,Clear,0,2013-09-14 11:35:00
6:55 AM,48.0,48.0,100,30.10,10.0,Calm,Calm,-,N/A,,Clear,0,2013-09-14 11:55:00
7:15 AM,49.1,48.4,97,30.11,10.0,NE,3.5,-,N/A,,Clear,40,2013-09-14 12:15:00
7:35 AM,50.7,47.1,87,30.12,10.0,NE,3.5,-,N/A,,Clear,40,2013-09-14 12:35:00
7:55 AM,52.2,47.5,84,30.11,10.0,NE,4.6,-,N/A,,Clear,40,2013-09-14 12:55:00
8:15 AM,53.8,48.6,82,30.13,10.0,Calm,Calm,-,N/A,,Clear,0,2013-09-14 13:15:00
8:35 AM,55.8,49.3,79,30.13,10.0,ENE,4.6,-,N/A,,Clear,60,2013-09-14 13:35:00
8:55 AM,57.6,49.3,74,30.13,10.0,East,5.8,-,N/A,,Clear,90,2013-09-14 13:55:00
9:15 AM,59.5,50.0,71,30.13,10.0,ENE,5.8,-,N/A,,Clear,70,2013-09-14 14:15:00
9:35 AM,61.3,50.9,69,30.14,10.0,ENE,6.9,-,N/A,,Clear,60,2013-09-14 14:35:00
9:55 AM,62.2,50.7,66,30.14,10.0,ENE,6.9,-,N/A,,Clear,70,2013-09-14 14:55:00
10:15 AM,63.1,50.4,63,30.14,10.0,East,11.5,17.3,N/A,,Clear,90,2013-09-14 15:15:00
10:35 AM,64.2,49.6,59,30.14,10.0,ENE,6.9,-,N/A,,Clear,60,2013-09-14 15:35:00
10:55 AM,65.7,49.8,57,30.14,10.0,ENE,4.6,-,N/A,,Clear,60,2013-09-14 15:55:00
11:15 AM,66.2,50.2,56,30.14,10.0,ENE,8.1,-,N/A,,Clear,70,2013-09-14 16:15:00
11:35 AM,66.7,48.7,52,30.14,10.0,East,11.5,18.4,N/A,,Clear,90,2013-09-14 16:35:00
11:55 AM,67.6,48.4,50,30.14,10.0,East,9.2,-,N/A,,Clear,80,2013-09-14 16:55:00
12:15 PM,68.0,48.2,49,30.13,10.0,ENE,6.9,-,N/A,,Clear,70,2013-09-14 17:15:00
12:35 PM,68.7,48.2,48,30.12,10.0,NE,5.8,-,N/A,,Clear,50,2013-09-14 17:35:00
12:55 PM,69.1,48.2,47,30.12,10.0,NE,4.6,-,N/A,,Clear,50,2013-09-14 17:55:00
1:15 PM,69.8,48.9,47,30.11,10.0,East,9.2,-,N/A,,Clear,90,2013-09-14 18:15:00
1:35 PM,70.2,48.6,46,30.11,10.0,NE,5.8,-,N/A,,Clear,50,2013-09-14 18:35:00
1:55 PM,70.3,48.0,45,30.10,10.0,NNE,5.8,-,N/A,,Clear,30,2013-09-14 18:55:00
2:15 PM,70.9,49.3,46,30.09,10.0,East,8.1,-,N/A,,Clear,80,2013-09-14 19:15:00
2:35 PM,71.2,48.0,44,30.09,10.0,East,8.1,-,N/A,,Clear,80,2013-09-14 19:35:00
2:55 PM,71.1,48.7,45,30.08,10.0,Calm,Calm,-,N/A,,Clear,0,2013-09-14 19:55:00
3:15 PM,71.6,48.7,44,30.08,10.0,East,8.1,-,N/A,,Clear,90,2013-09-14 20:15:00
3:35 PM,71.6,48.0,43,30.08,10.0,East,8.1,-,N/A,,Clear,90,2013-09-14 20:35:00
3:55 PM,71.4,47.7,43,30.08,10.0,Calm,Calm,-,N/A,,Clear,0,2013-09-14 20:55:00
4:15 PM,71.2,48.4,44,30.08,10.0,East,4.6,-,N/A,,Clear,80,2013-09-14 21:15:00
4:35 PM,71.2,49.5,46,30.08,10.0,NNE,3.5,-,N/A,,Clear,30,2013-09-14 21:35:00
4:55 PM,71.2,49.6,46,30.08,10.0,Calm,Calm,-,N/A,,Clear,0,2013-09-14 21:55:00
5:15 PM,70.9,48.9,46,30.08,10.0,East,6.9,-,N/A,,Clear,90,2013-09-14 22:15:00
5:35 PM,70.5,48.9,46,30.08,10.0,East,5.8,-,N/A,,Clear,90,2013-09-14 22:35:00
5:55 PM,69.4,49.8,50,30.08,10.0,Calm,Calm,-,N/A,,Clear,0,2013-09-14 22:55:00
6:15 PM,68.2,50.2,53,30.08,10.0,East,4.6,-,N/A,,Clear,90,2013-09-14 23:15:00
6:35 PM,66.0,50.9,58,30.08,10.0,Calm,Calm,-,N/A,,Clear,0,2013-09-14 23:35:00
6:55 PM,62.6,52.2,69,30.09,10.0,Calm,Calm,-,N/A,,Clear,0,2013-09-14 23:55:00
7:15 PM,60.6,51.8,73,30.09,10.0,North,3.5,-,N/A,,Clear,10,2013-09-15 00:15:00
7:35 PM,58.6,53.1,82,30.10,10.0,Calm,Calm,-,N/A,,Clear,0,2013-09-15 00:35:00
7:55 PM,57.2,53.6,88,30.10,10.0,Calm,Calm,-,N/A,,Clear,0,2013-09-15 00:55:00
8:15 PM,56.8,53.2,88,30.10,10.0,Calm,Calm,-,N/A,,Clear,0,2013-09-15 01:15:00
8:35 PM,56.5,53.2,89,30.11,10.0,Calm,Calm,-,N/A,,Clear,0,2013-09-15 01:35:00
8:55 PM,55.2,54.0,96,30.10,10.0,Calm,Calm,-,N/A,,Clear,0,2013-09-15 01:55:00
9:15 PM,54.7,54.7,100,30.10,10.0,Calm,Calm,-,N/A,,Clear,0,2013-09-15 02:15:00
9:35 PM,54.5,54.5,100,30.09,10.0,Calm,Calm,-,N/A,,Clear,0,2013-09-15 02:35:00
9:55 PM,52.9,52.9,100,30.10,10.0,Calm,Calm,-,N/A,,Clear,0,2013-09-15 02:55:00
10:15 PM,52.0,52.0,100,30.10,10.0,Calm,Calm,-,N/A,,Clear,0,2013-09-15 03:15:00
10:35 PM,52.3,52.3,100,30.10,10.0,East,3.5,-,N/A,,Clear,80,2013-09-15 03:35:00
10:55 PM,52.5,52.5,100,30.10,10.0,Calm,Calm,-,N/A,,Clear,0,2013-09-15 03:55:00
11:15 PM,52.5,52.5,100,30.10,10.0,Calm,Calm,-,N/A,,Clear,0,2013-09-15 04:15:00
11:35 PM,52.5,52.5,100,30.10,10.0,Calm,Calm,-,N/A,,Clear,0,2013-09-15 04:35:00
11:55 PM,52.0,52.0,100,30.09,10.0,Calm,Calm,-,N/A,,Clear,0,2013-09-15 04:55:00